Regional Weather Roundup
Issued by NWS Spokane, WA

Home | Current Version | Previous Version | Text Only | Print | Product List | Glossary On
Versions: 1 2 3 4 5 6 7 8 9 10 11 12 13 14 15 16 17 18 19 20 21 22 23 24 25 26 27 28 29 30 31 32 33 34 35 36 37 38 39 40 41 42 43 44 45 46 47 48 49 50
000
NZUS01 KOTX 031210
RWROTX
EASTERN WASHINGTON/NORTHERN IDAHO ROUNDUP
NATIONAL WEATHER SERVICE, SPOKANE WA
500 AM PDT SUN MAY 03 2015

Note: "fair" indicated few or no clouds below 12,000 feet with no
significant weather and/or obstructions to visibility.

...NORTHEAST WASHINGTON AND NORTHERN IDAHO PANHANDLE...

CITY           SKY/WX    TMP DP  RH WIND       PRES   REMARKS
SPOKANE INTL   PTCLDY    44  24  45 NE5       29.97R
SPOKANE DOWNTO PTCLDY    37  31  78 CALM      29.99R
COEUR D ALENE  PTCLDY    39  25  56 NE9       30.00R
DEER PARK      PTCLDY    31  24  75 NE3       29.99R
SANDPOINT      CLEAR     32  28  86 CALM      30.00S
BONNERS FERRY  FAIR      32  25  74 CALM      30.03R

...SOUTHEAST WASHINGTON AND SOUTHERN IDAHO PANHANDLE...

CITY           SKY/WX    TMP DP  RH WIND       PRES   REMARKS
WALLA WALLA    CLEAR     44  31  60 E6        29.93R
PULLMAN/MOSCOW CLEAR     31  24  75 CALM      29.96R
LEWISTON       CLEAR     37  28  70 S5        29.95R
LOWELL           N/A     38  33  82 N3        30.02S

...COLUMBIA BASIN...

CITY           SKY/WX    TMP DP  RH WIND       PRES   REMARKS
EPHRATA        PTCLDY    47  25  42 NW6       29.96R
MOSES LAKE     PTCLDY    37  30  75 N7        29.97R
TRI CITIES     CLEAR     37  31  78 NW3       29.96R
HERMISTON      CLEAR     36  30  79 SE3       29.93S
PENDLETON      CLEAR     41  32  70 SE8       29.93R

...EAST SLOPES CASCADES...

CITY           SKY/WX    TMP DP  RH WIND       PRES   REMARKS
THE DALLES     CLEAR     46  39  76 SE5       29.94S
YAKIMA         CLEAR     42  32  67 W12       29.96R
ELLENSBURG     CLEAR     39  31  72 E6        29.97R
WENATCHEE      CLEAR     47  31  53 NW3       29.98R
OMAK           CLEAR     44  24  45 N13       30.01R

...SOUTHERN BRITISH COLUMBIA...

CITY           SKY/WX    TMP DP  RH WIND       PRES   REMARKS
PENTICTON      CLEAR     34  23  64 N7        30.07R WCI  28
CRANBROOK      CLEAR     34  18  51 W7        30.04R WCI  28

...WESTERN MONTANA...

CITY           SKY/WX    TMP DP  RH WIND       PRES   REMARKS
MISSOULA       CLEAR     32  22  66 CALM      29.99R

...NEIGHBORING CITIES...

CITY           SKY/WX    TMP DP  RH WIND       PRES   REMARKS
SEATTLE        CLEAR     47  38  71 NE5       30.01S
CALGARY        MOCLDY    32  25  74 SW6       30.04R WCI  26



USA.gov is the U.S. government's official web portal to all federal, state and local government web resources and services.